Temperature
25 24 23 23 22 21 21 20 20 20 19 19 19 19 19 19 19 19 19 18 18 18 18 18 18 18 18 18 18 18 18 18 18 18 18 19 19 19 18 18 18 18 18
25 24 24 23 22 21 21 20 20 20 20 19 19 19 19 19 19 19 19 19 18 18 18 18 18 18 18 18 18 18 18 18 18 18 18 18 19 19 19 19 18 18 18
26 24 24 23 22 21 21 21 20 20 20 19 19 19 19 19 19 19 19 19 19 19 18 18 18 18 18 18 18 18 18 18 18 18 18 18 18 18 19 19 18 18 18
26 25 24 23 23 22 21 21 21 20 20 20 19 19 19 19 19 19 19 19 19 19 18 18 18 18 18 18 18 18 18 18 18 18 18 18 18 18 18 18 18 18 18
27 25 25 24 23 22 21 21 21 20 20 20 20 20 20 19 19 19 19 19 19 19 19 19 18 18 18 18 18 18 18 18 18 18 18 18 18 18 18 18 18 18 18
27 26 25 24 23 22 22 21 21 21 21 20 20 20 20 20 20 19 19 19 19 19 19 19 19 19 18 18 18 18 18 18 18 18 18 18 18 18 18 18 18 18 18
28 27 25 24 23 23 22 21 21 21 21 21 20 20 20 20 19 19 19 19 19 19 19 19 19 19 19 18 18 18 18 18 18 18 18 18 18 18 18 18 18 18 17
28 27 26 25 24 23 22 22 21 21 21 21 20 20 20 20 19 19 19 19 19 19 19 19 19 19 19 18 18 18 18 18 18 18 18 18 18 18 17 17 17 17 17
28 27 26 25 24 23 22 22 21 21 21 21 21 20 20 20 19 19 19 19 19 19 19 19 19 19 18 18 18 18 17 17 18 18 17 17 17 17 17 17 17 17 17
28 28 27 26 25 24 23 22 21 21 21 21 20 20 20 20 20 19 19 19 19 19 19 19 19 19 18 18 18 18 18 18 18 18 17 17 17 17 17 17 17 17 17
28 27 27 26 25 24 23 22 22 21 21 20 20 20 20 20 20 20 19 19 19 19 19 19 19 18 18 18 18 18 17 17 17 17 17 17 17 17 17 17 16 16 16
28 27 26 26 25 24 23 22 22 21 21 20 20 20 20 20 20 20 19 19 19 19 19 19 18 18 18 18 18 18 17 17 17 17 17 17 17 17 16 16 16 16 16
28 27 26 25 24 24 23 22 22 21 21 20 20 20 20 20 20 19 19 19 19 19 19 19 18 18 18 18 18 17 17 17 17 17 16 16 16 16 16 16 16 16 16
27 26 25 24 24 23 23 22 22 21 21 20 20 20 20 20 20 19 19 19 19 19 18 18 18 18 18 18 17 17 17 17 17 16 16 16 16 16 16 16 16 16 16
26 25 24 24 23 23 23 22 22 21 21 21 20 20 20 19 19 19 19 19 18 18 18 18 18 18 17 17 17 17 17 17 16 16 16 16 16 16 16 16 16 15 15
26 25 24 23 23 22 22 22 22 21 21 21 20 20 20 19 19 19 19 18 18 18 18 18 18 17 17 17 17 17 17 16 16 16 16 16 16 16 16 16 15 15 15
25 24 24 23 23 22 22 21 21 21 21 20 20 20 20 19 19 19 18 18 18 18 18 18 17 17 17 17 17 17 16 16 16 16 16 15 15 15 15 15 15 15 15
24 24 23 23 22 22 22 21 21 21 20 20 20 20 19 19 19 18 18 18 18 17 17 17 17 17 17 17 17 16 16 16 16 15 15 15 15 15 15 15 15 15 15
23 23 23 23 22 22 21 21 21 20 20 20 19 19 19 19 19 18 18 18 17 17 17 17 17 17 17 17 16 16 16 16 15 15 15 15 15 15 15 15 14 14 14
22 22 22 22 21 21 21 21 20 20 20 19 19 19 19 19 18 18 18 18 17 17 17 17 17 17 17 16 16 16 15 15 15 15 15 15 15 15 14 14 14 14 14
21 21 21 21 20 20 20 20 20 20 19 19 19 18 18 18 18 18 18 17 17 17 17 16 16 16 16 16 16 16 15 15 15 14 14 14 14 14 14 14 14 14 14
20 20 20 20 20 20 20 20 19 19 19 19 18 18 18 18 18 18 17 17 17 17 16 16 16 16 16 16 16 16 15 15 14 14 14 14 14 14 14 14 14 13 13
19 19 19 19 19 19 19 19 19 19 19 18 18 18 18 18 17 17 17 17 17 16 16 16 16 16 16 16 16 15 15 15 14 14 14 14 14 14 14 13 13 13 13
19 19 19 18 18 18 18 19 18 18 18 18 18 18 18 17 17 17 17 17 17 16 16 16 16 15 15 15 15 15 15 14 14 14 14 14 14 13 13 13 13 13 13
18 18 18 18 18 18 18 18 18 18 18 18 18 17 17 17 17 17 17 16 16 16 16 16 16 15 15 15 15 15 15 14 14 14 14 13 13 13 13 13 13 13 12
18 18 18 17 17 17 17 18 18 18 17 17 17 17 17 17 17 17 17 16 16 16 16 16 16 16 15 15 15 15 14 14 14 13 13 13 13 13 13 13 12 12 12
Wind_Speed
13 13 12 12 11 10 9 7 6 5 4 2 2 2 2 2 2 2 4 3 2 1 1 2 1 0 1 1 1 1 2 1 0 1 1 2 2 2 2 2 2 2 3
13 13 12 11 11 10 9 7 7 6 5 3 2 2 2 2 2 2 3 3 2 1 1 0 1 1 1 0 1 1 2 2 1 1 1 1 1 1 2 2 2 2 2
14 13 12 11 11 11 10 8 6 6 5 4 3 2 1 1 1 3 3 2 3 2 1 0 1 1 1 1 1 1 2 2 2 1 1 1 1 1 1 1 1 1 1
14 14 14 12 12 11 11 8 7 6 5 4 4 4 3 2 2 2 2 2 2 2 2 1 1 1 1 0 1 0 2 2 3 2 1 1 1 1 1 1 1 1 1
15 14 14 13 12 12 11 10 8 7 5 5 4 3 3 2 2 2 2 2 2 2 2 2 1 1 1 1 1 1 2 2 2 2 2 2 2 3 2 2 2 1 1
14 14 13 13 11 12 11 11 9 7 6 6 5 4 3 2 1 1 2 2 2 3 3 2 1 1 1 1 1 2 3 2 2 3 3 2 2 2 2 3 2 1 1
13 13 14 13 12 11 11 10 10 8 8 7 5 5 4 3 3 3 3 3 2 2 2 2 2 1 1 2 1 2 2 2 2 3 3 3 3 2 2 2 2 2 2
13 13 13 13 13 12 10 10 10 9 8 7 6 5 5 4 3 4 3 2 1 1 2 2 2 2 2 2 1 2 2 1 2 3 3 3 3 2 2 2 2 2 2
12 13 13 13 12 12 11 11 11 9 8 8 7 6 5 5 3 3 3 2 2 2 2 2 2 2 2 1 1 1 2 2 2 3 3 2 3 3 2 2 1 2 3
8 11 12 11 11 11 10 10 10 10 8 7 6 6 5 4 4 3 3 2 1 1 0 1 1 1 1 1 1 2 1 1 1 2 3 3 3 2 2 2 2 2 2
8 8 9 10 11 10 10 10 10 9 8 7 6 5 6 6 5 4 3 3 2 2 1 1 1 1 1 1 1 2 2 1 2 2 2 3 3 3 3 2 2 2 1
8 8 8 7 8 9 9 9 8 9 8 7 7 6 5 5 5 4 4 4 3 3 2 2 2 2 1 2 2 2 2 2 2 2 2 3 3 3 3 3 3 2 2
7 7 6 6 5 6 7 8 8 8 8 8 7 6 5 5 5 4 4 3 3 2 2 2 2 2 1 1 1 1 2 2 1 2 2 2 3 3 3 3 3 2 2
6 6 6 5 4 4 5 6 7 7 8 7 7 7 6 5 4 4 4 3 3 3 2 2 2 2 1 1 1 1 1 1 1 1 2 2 2 3 4 3 3 3 2
6 5 5 4 4 4 4 5 6 5 6 6 7 6 5 4 4 4 4 3 3 3 2 2 2 2 2 2 1 2 2 1 1 1 2 2 2 3 3 3 2 3 2
4 5 5 5 4 3 3 4 5 5 5 5 5 5 5 5 5 4 4 3 3 2 2 2 2 2 2 1 1 2 1 1 2 2 2 2 1 1 1 2 1 1 2
3 3 4 5 4 4 4 3 4 5 5 5 4 5 5 5 4 5 4 4 3 3 3 2 2 1 0 1 1 2 2 2 2 2 3 4 2 1 2 3 3 3 3
3 2 2 4 4 4 4 3 4 5 5 5 5 5 5 4 4 4 4 3 3 2 2 2 2 2 2 1 0 2 3 2 2 2 3 2 2 3 3 3 2 2 3
3 2 1 2 2 2 2 3 3 5 5 5 4 4 5 5 4 5 4 3 3 3 3 3 3 2 2 3 2 2 3 3 3 2 2 2 2 2 3 2 3 3 3
4 3 2 2 2 2 2 3 3 4 4 4 5 4 5 5 5 5 4 4 3 3 3 3 3 3 3 4 4 3 3 3 3 2 2 1 1 2 2 3 3 4 4
4 5 4 3 2 1 2 2 2 2 3 3 4 4 4 5 4 4 3 3 3 3 3 3 3 3 3 4 5 4 3 4 3 3 2 1 1 3 4 4 4 5 5
5 4 4 3 2 2 2 1 1 1 2 3 3 4 4 5 4 4 3 3 3 4 3 3 3 3 3 4 4 5 5 5 3 3 2 1 2 4 6 5 6 7 5
3 3 4 3 3 2 1 0 1 1 1 2 3 3 4 4 3 4 4 4 4 4 4 4 4 4 3 3 5 5 6 5 4 3 2 2 3 4 5 7 8 6 4
3 3 3 3 3 2 1 1 1 2 2 3 3 3 4 4 4 4 4 5 5 5 4 4 4 4 3 3 3 3 3 4 4 4 4 5 6 6 6 4 4 4 3
2 2 2 2 2 2 2 2 1 1 2 3 3 3 4 4 3 4 3 5 5 5 5 4 4 3 3 4 5 4 4 3 3 3 3 4 3 3 3 3 2 2 2
1 2 2 3 2 3 3 3 2 1 2 3 3 4 4 3 3 4 3 2 2 3 4 5 4 3 3 5 4 4 3 3 3 3 4 4 3 3 2 2 2 2 2
Wind_Direction
162 158 158 153 150 147 148 152 157 152 153 168 180 169 163 168 147 143 134 143 148 160 208 338 83 314 75 45 22 352 314 287 295 335 297 270 222 197 193 201 197 191 177
163 159 160 160 157 153 152 156 165 162 172 172 189 184 174 185 170 132 137 164 164 202 198 191 316 359 81 259 282 306 303 304 312 283 287 290 292 306 226 196 203 199 179
163 161 166 166 163 160 160 163 162 163 178 167 189 203 174 230 153 146 155 181 188 197 292 313 309 321 249 203 243 295 297 300 306 304 302 295 308 313 274 257 211 173 137
165 166 170 170 169 165 162 156 158 165 173 178 198 202 192 194 182 184 153 173 189 195 194 229 262 297 303 269 268 39 293 294 295 295 261 250 250 253 283 279 262 196 147
168 169 172 169 169 167 164 162 159 166 169 185 192 206 211 202 187 169 160 189 190 200 206 201 184 265 290 295 312 320 299 297 300 302 299 287 265 250 247 274 274 260 202
168 167 166 163 169 170 168 165 161 166 171 182 191 199 219 218 201 193 184 202 198 200 198 197 183 213 259 278 282 284 282 285 302 304 302 299 299 293 275 278 281 277 259
163 165 166 167 171 171 169 164 162 170 176 181 191 194 208 211 208 223 218 223 209 186 191 199 174 204 247 261 267 278 294 301 302 290 291 297 293 292 291 284 290 297 281
165 168 169 170 172 173 169 167 163 172 178 184 192 193 198 208 216 215 233 233 237 192 172 183 176 202 237 262 251 264 284 308 295 292 298 299 301 301 292 289 290 295 296
166 166 171 171 172 174 172 173 166 171 177 185 187 188 195 211 228 214 221 237 249 228 173 181 190 210 232 262 273 289 311 323 306 309 305 297 293 293 309 308 295 281 289
163 165 167 166 170 173 172 170 167 172 177 185 189 190 192 202 223 224 214 219 231 279 219 196 198 212 225 239 245 283 288 290 309 309 325 322 316 326 320 310 310 294 274
169 160 156 161 166 169 170 166 168 167 173 183 186 191 184 193 203 205 206 213 222 233 219 220 222 225 221 225 235 247 280 290 294 297 304 308 314 322 317 315 310 299 284
154 149 149 154 161 167 170 166 170 172 177 182 182 191 188 188 196 198 202 205 213 216 220 222 227 238 226 218 231 256 275 271 280 284 297 306 304 310 311 315 311 306 293
135 137 140 143 158 165 164 167 173 177 180 183 187 186 196 195 195 196 194 201 209 217 222 222 230 237 237 229 232 247 268 277 290 304 304 306 315 315 309 300 305 302 307
123 130 131 138 145 156 158 165 174 180 178 177 186 188 193 194 192 194 193 196 200 205 209 221 228 231 226 237 237 222 242 276 288 313 318 319 321 318 308 295 301 308 318
129 132 137 137 144 155 161 167 173 173 174 174 184 186 185 185 187 194 194 192 206 215 202 210 219 232 226 239 249 243 224 239 279 294 297 325 358 352 325 316 325 327 326
143 145 144 146 152 158 169 177 168 166 165 173 183 177 177 183 186 193 192 196 204 207 203 208 223 240 246 31 34 325 279 249 262 279 288 258 264 323 302 280 281 290 296
128 153 161 160 166 170 169 182 174 166 171 177 182 174 177 186 190 199 194 202 202 202 212 213 204 199 128 69 44 343 276 274 275 280 282 287 294 300 280 265 241 246 251
62 71 156 163 168 173 174 180 182 171 176 182 186 177 180 189 189 198 201 196 195 201 205 211 212 197 217 205 262 313 255 262 266 280 293 300 303 307 315 289 280 266 269
50 60 65 137 133 158 160 163 179 177 183 188 187 184 184 190 194 197 196 191 189 196 205 198 203 203 205 204 217 266 259 257 263 262 291 307 313 324 332 295 288 288 282
39 38 56 79 87 104 145 166 189 185 187 190 186 186 187 194 196 197 195 197 192 201 216 211 204 207 206 209 216 235 261 261 263 255 260 308 301 310 312 286 278 275 286
47 46 47 68 85 84 125 156 175 191 192 184 178 184 190 197 196 190 190 187 201 210 221 218 215 213 203 207 217 225 248 269 270 264 275 300 275 265 268 271 268 267 283
47 40 43 56 79 91 107 113 154 176 176 175 181 187 190 211 203 181 190 203 216 213 218 222 226 227 204 198 206 209 228 264 276 276 280 307 307 272 266 267 272 279 287
38 23 29 38 54 82 82 43 192 182 201 191 191 194 197 208 193 187 203 215 217 223 227 225 231 232 217 200 205 210 221 238 252 278 274 269 261 272 267 259 267 274 273
25 20 19 20 26 27 316 266 245 195 212 214 205 207 211 210 194 193 206 220 223 227 225 224 227 229 220 214 206 214 224 231 247 264 265 251 250 259 264 271 260 248 258
15 11 359 357 6 357 335 307 302 257 239 241 229 225 227 213 201 209 215 220 224 231 222 229 230 226 230 226 211 214 220 224 227 233 248 253 251 248 253 254 251 250 253
344 341 332 331 334 337 339 338 329 302 267 250 243 243 236 218 217 220 247 332 261 224 209 210 218 229 212 196 191 198 199 206 200 222 254 255 254 255 247 250 259 254 255
Height
1517 1520 1523 1525 1527 1528 1530 1532 1533 1534 1536 1537 1538 1539 1540 1541 1541 1542 1542 1542 1542 1543 1543 1543 1544 1544 1544 1543 1543 1543 1543 1543 1542 1542 1541 1541 1541 1541 1540 1540 1540 1540 1539
1515 1518 1521 1524 1526 1527 1529 1531 1532 1533 1535 1536 1538 1539 1540 1541 1541 1542 1542 1542 1542 1542 1543 1543 1543 1543 1543 1543 1543 1542 1542 1542 1542 1541 1540 1540 1541 1540 1539 1539 1539 1539 1538
1511 1515 1519 1522 1524 1526 1528 1530 1531 1533 1534 1536 1537 1539 1539 1540 1541 1541 1541 1542 1542 1542 1542 1542 1542 1542 1542 1542 1542 1542 1541 1541 1541 1541 1541 1540 1539 1539 1539 1538 1538 1537 1537
1509 1513 1517 1520 1523 1525 1527 1528 1530 1532 1533 1535 1536 1537 1538 1539 1540 1541 1541 1541 1541 1541 1541 1541 1541 1541 1541 1541 1541 1540 1540 1540 1540 1539 1539 1540 1539 1538 1538 1538 1537 1536 1535
1506 1510 1514 1517 1521 1524 1525 1527 1529 1530 1532 1533 1535 1536 1538 1539 1540 1540 1540 1540 1541 1541 1541 1541 1540 1540 1540 1540 1540 1539 1539 1539 1538 1538 1538 1538 1537 1537 1537 1536 1535 1535 1534
1503 1508 1512 1515 1519 1522 1524 1526 1527 1529 1530 1532 1533 1535 1536 1537 1538 1539 1539 1540 1540 1540 1540 1540 1539 1539 1539 1538 1538 1538 1538 1537 1537 1537 1537 1536 1536 1535 1535 1534 1533 1533 1532
1500 1505 1509 1513 1517 1520 1522 1524 1525 1527 1528 1530 1532 1533 1535 1536 1537 1538 1539 1539 1539 1539 1539 1539 1538 1538 1537 1537 1537 1536 1536 1536 1535 1535 1535 1535 1534 1534 1533 1533 1532 1531 1530
1498 1502 1507 1510 1514 1517 1520 1522 1523 1525 1527 1528 1530 1532 1533 1534 1536 1537 1538 1538 1538 1538 1538 1538 1537 1537 1536 1536 1535 1535 1535 1534 1534 1533 1533 1533 1532 1532 1531 1531 1530 1529 1528
1495 1500 1504 1508 1512 1515 1517 1520 1521 1523 1525 1526 1528 1530 1531 1532 1534 1535 1536 1536 1537 1537 1537 1536 1536 1535 1535 1534 1534 1533 1533 1533 1532 1531 1531 1531 1531 1530 1529 1529 1529 1529 1527
1494 1499 1502 1506 1509 1513 1516 1518 1519 1521 1522 1525 1526 1528 1529 1531 1532 1533 1534 1535 1535 1535 1535 1535 1534 1534 1533 1533 1532 1532 1531 1531 1530 1530 1529 1529 1529 1528 1527 1527 1526 1526 1526
1493 1497 1501 1504 1508 1511 1513 1516 1517 1519 1521 1522 1524 1526 1527 1529 1530 1531 1532 1532 1533 1533 1533 1533 1533 1532 1532 1531 1531 1530 1530 1529 1529 1528 1528 1527 1526 1526 1525 1525 1524 1524 1524
1492 1496 1500 1503 1506 1509 1511 1513 1515 1517 1518 1520 1522 1524 1525 1527 1528 1528 1529 1530 1531 1531 1531 1531 1531 1531 1530 1530 1529 1529 1528 1528 1527 1527 1526 1525 1525 1524 1523 1523 1522 1522 1521
1492 1495 1499 1502 1504 1507 1509 1511 1513 1515 1516 1518 1520 1521 1523 1524 1525 1526 1527 1528 1529 1529 1529 1529 1529 1529 1529 1528 1528 1527 1527 1526 1525 1525 1524 1523 1523 1521 1521 1520 1520 1519 1519
1492 1495 1498 1501 1503 1505 1507 1509 1511 1513 1515 1516 1518 1519 1520 1522 1523 1524 1525 1526 1526 1527 1527 1527 1527 1527 1527 1526 1526 1525 1525 1524 1523 1523 1522 1521 1520 1519 1519 1518 1517 1517 1517
1492 1495 1498 1500 1502 1504 1506 1508 1510 1511 1513 1514 1515 1517 1518 1520 1521 1522 1523 1524 1524 1525 1525 1525 1524 1525 1524 1524 1523 1523 1523 1522 1521 1520 1520 1519 1519 1518 1517 1516 1515 1515 1514
1492 1495 1497 1500 1501 1503 1505 1506 1508 1509 1511 1512 1514 1515 1516 1518 1518 1520 1521 1521 1522 1522 1522 1522 1522 1522 1522 1522 1522 1521 1520 1520 1519 1518 1518 1517 1516 1515 1515 1514 1513 1513 1512
1493 1495 1497 1499 1500 1502 1503 1504 1506 1508 1509 1510 1512 1513 1514 1515 1516 1517 1518 1519 1519 1519 1519 1520 1520 1520 1520 1520 1519 1519 1518 1517 1517 1516 1516 1515 1514 1513 1512 1511 1511 1510 1510
1493 1494 1496 1498 1499 1501 1502 1503 1505 1506 1507 1509 1510 1511 1512 1514 1514 1515 1515 1516 1517 1517 1517 1517 1517 1517 1517 1517 1517 1516 1516 1515 1514 1514 1513 1512 1511 1511 1510 1509 1508 1507 1507
1493 1494 1495 1497 1498 1499 1500 1501 1503 1504 1505 1506 1508 1508 1510 1511 1512 1512 1513 1513 1514 1514 1514 1514 1514 1514 1514 1514 1514 1514 1513 1513 1512 1511 1511 1510 1509 1508 1507 1506 1505 1505 1504
1493 1494 1495 1496 1496 1497 1498 1499 1501 1502 1503 1504 1505 1506 1507 1508 1509 1510 1510 1511 1511 1511 1511 1511 1511 1511 1511 1511 1511 1511 1510 1509 1509 1508 1508 1507 1506 1505 1504 1503 1502 1501 1501
1493 1493 1494 1495 1495 1496 1497 1497 1498 1500 1501 1502 1503 1504 1505 1506 1506 1507 1508 1508 1508 1508 1508 1508 1508 1508 1508 1508 1508 1508 1507 1507 1506 1505 1505 1504 1504 1503 1502 1501 1500 1499 1499
1492 1493 1493 1494 1495 1495 1495 1495 1497 1498 1499 1500 1501 1501 1502 1504 1505 1505 1505 1505 1505 1506 1506 1505 1505 1505 1505 1505 1505 1504 1504 1504 1503 1503 1502 1502 1501 1500 1499 1498 1498 1497 1497
1493 1493 1493 1493 1494 1494 1494 1495 1495 1497 1497 1498 1498 1499 1500 1501 1502 1502 1502 1502 1502 1503 1502 1502 1502 1502 1502 1502 1502 1501 1501 1501 1500 1500 1499 1499 1498 1497 1496 1496 1495 1495 1494
1493 1493 1493 1493 1493 1493 1494 1494 1495 1495 1495 1496 1496 1497 1498 1498 1499 1499 1499 1499 1499 1499 1499 1499 1499 1499 1499 1498 1498 1497 1497 1497 1497 1496 1496 1495 1495 1494 1493 1493 1492 1492 1491
1492 1492 1492 1492 1491 1492 1492 1493 1493 1493 1493 1493 1494 1495 1495 1495 1495 1495 1495 1495 1496 1496 1496 1496 1496 1495 1495 1495 1495 1495 1494 1494 1493 1493 1492 1492 1491 1490 1490 1489 1489 1489 1488
1491 1491 1491 1491 1490 1490 1490 1490 1490 1490 1490 1491 1491 1492 1492 1492 1492 1492 1492 1492 1493 1493 1493 1493 1493 1492 1492 1491 1491 1491 1491 1491 1491 1490 1489 1489 1488 1488 1487 1487 1486 1486 1485